Location: Beacon Field Observatory
(38.7700°N, 77.0829°W)
Time: 03:18:23
(UTC-05:00)

UKube-1 - Pass Details

Date: 17 December 2019
Orbit: 613 x 619 km, 98.5° (Epoch: 27 January)

Event Time Altitude Azimuth Distance (km) Brightness Sun altitude
Rises 04:38:21 0° 160° (SSE) 2,867 ? -30.7°
Reaches altitude 10° 04:40:32 10° 158° (SSE) 1,967 ? -30.3°
Enters shadow 04:42:08 23° 155° (SSE) 1,330 ? -30.0°
